Tracking 19817 objects as of 19-Aug-2019
HD Live streaming from Space Station
objects crossing your sky now

COSMOS 2251 DEB

Track COSMOS 2251 DEB now!
10-day predictions


NORAD ID: 40794
Int'l Code: 1993-036BVX
Perigee: 737.2 km
Apogee: 786.9 km
Inclination: 74.0 °
Period: 99.9 minutes
Semi major axis: 7133 km
RCS: Unknown
Launch date: June 16, 1993
Source: Commonwealth of Independent States (former USSR) (CIS)
Launch site: PLESETSK MISSILE AND SPACE COMPLEX (PKMTR)

Note: This is SATELLITE DEBRIS
aabbcc
Your satellite tracking list
Your tracking list is empty




NASA's NSSDC Master Catalog

Two Line Element Set (TLE):
1 40794U 93036BVX 19228.17790601 +.00000433 +00000-0 +14174-3 0  9998
2 40794 073.9946 172.2109 0034879 113.0285 307.3854 14.41084570283824
Source of the keplerian elements: AFSPC